• Join FlightAware (Why Join?)
  • Login
  • US Flag GB Flag 
02:17 EST


 

Airport Tracker/Info


-or-


 

Live Flight TrackerFlight Track Log ✈ N421VA ✈ 13-Jun-2013 ✈ KHXD - KPMH

Flight Track Log - Related Links

Times and Time Zones

All times are in EDT time to prevent confusion due to time zone crossing. See the N421VA flight status page for this flight to view local times or setup timezone preferences in your user account.

Time Position Orientation Groundspeed Altitude Reporting Facility
EDT Latitude Longitude Course Direction KTS MPH feet Rate Location/Type
21:15 32.2544 -80.6056 358° North 133 153 3,000  Level Jacksonville Center
21:16 32.2922 -80.6192 343° North 122 140 3,900 720 Climbing Jacksonville Center
21:17 32.3236 -80.6211 357° North 149 171 4,500 780 Climbing Jacksonville Center
21:18 32.3633 -80.6275 352° North 133 153 5,500 900 Climbing Jacksonville Center
21:19 32.4949 -80.7752 342° North  Level FlightAware Approximate
21:19 32.3989 -80.6314 355° North 133 153 6,400  Level Jacksonville Center
21:20 32.4303 -80.6381 350° North 127 146 7,200 780 Climbing Jacksonville Center
21:21 32.4658 -80.6419 355° North 127 146 8,000 720 Climbing Jacksonville Center
21:22 32.4975 -80.6511 346° North 127 146 8,700 720 Climbing Jacksonville Center
21:23 32.5375 -80.6697 339° North 127 146 9,500 780 Climbing Jacksonville Center
21:24 32.5689 -80.6839 339° North 127 146 10,300 720 Climbing Jacksonville Center
21:25 32.6006 -80.7028 333° Northwest 127 146 11,000 780 Climbing Jacksonville Center
21:26 32.6322 -80.7217 333° Northwest 133 153 11,900 840 Climbing Jacksonville Center
21:27 32.6619 -80.7433 328° Northwest 133 153 12,700 900 Climbing Jacksonville Center
21:28 32.6933 -80.7597 336° Northwest 122 140 13,700 720 Climbing Jacksonville Center
21:29 32.7269 -80.7714 344° North 117 135 14,200 660 Climbing Jacksonville Center
21:30 32.7628 -80.7853 342° North 123 142 15,100 780 Climbing Jacksonville Center
21:31 32.8006 -80.7969 345° North 128 147 15,800 600 Climbing Jacksonville Center
21:32 32.8383 -80.8083 346° North 133 153 16,400 660 Climbing Jacksonville Center
21:33 32.8761 -80.8175 348° North 133 153 17,200 720 Climbing Jacksonville Center
21:34 32.9139 -80.8289 346° North 133 153 17,900 720 Climbing Jacksonville Center
21:35 32.9536 -80.8403 346° North 133 153 18,700 480 Climbing Jacksonville Center
21:36 32.9914 -80.8592 337° Northwest 138 159 18,900 420 Climbing Jacksonville Center
21:37 33.0294 -80.8856 330° Northwest 148 170 19,600 660 Climbing Jacksonville Center
21:38 33.0633 -80.9072 332° Northwest 153 176 20,300 600 Climbing Jacksonville Center
21:39 33.0989 -80.9286 333° Northwest 147 169 20,900 540 Climbing Jacksonville Center
21:40 33.1347 -80.9503 333° Northwest 142 163 21,400 420 Climbing Jacksonville Center
21:41 33.1747 -80.9717 336° Northwest 142 163 21,800 300 Climbing Jacksonville Center
21:42 33.2147 -80.9908 338° Northwest 142 163 22,000 60 Climbing Jacksonville Center
21:43 33.2592 -81.0197 331° Northwest 155 178 22,000  Level Jacksonville Center
21:44 33.3053 -81.0461 334° Northwest 174 200 22,000  Level Jacksonville Center
21:45 33.3517 -81.0747 333° Northwest 180 207 22,000  Level Jacksonville Center
21:46 33.3958 -81.1014 333° Northwest 180 207 22,100  Climbing Jacksonville Center
21:47 33.4400 -81.1303 331° Northwest 180 207 22,000 -60 Descending Jacksonville Center
21:48 33.4844 -81.1567 334° Northwest 180 207 22,000  Level Jacksonville Center
21:49 33.5286 -81.1858 331° Northwest 180 207 22,000  Level Jacksonville Center
21:50 33.5667 -81.2200 323° Northwest 175 201 22,000  Level Jacksonville Center
21:51 33.6003 -81.2542 320° Northwest 165 190 22,000  Level Jacksonville Center
21:52 33.6300 -81.2911 314° West 160 184 22,000  Level Jacksonville Center
21:53 33.6619 -81.3281 316° Northwest 155 178 22,000  Level Jacksonville Center
21:54 33.6936 -81.3550 325° Northwest 155 178 22,000 -60 Level Jacksonville Center
21:55 33.7294 -81.3867 324° Northwest 155 178 21,900  Descending Jacksonville Center
21:56 33.7631 -81.4086 332° Northwest 155 178 22,100 120 Climbing Jacksonville Center
21:57 33.8028 -81.4181 349° North 150 173 22,200 -60 Climbing Jacksonville Center
21:58 33.8406 -81.4297 346° North 144 166 22,000 -60 Descending Jacksonville Center
22:00 33.9158 -81.4781 332° Northwest 139 160 22,100  Climbing Atlanta Center
22:01 33.9578 -81.4917 345° North 145 167 22,000 -120 Descending Atlanta Center
22:02 34.0017 -81.4981 353° North 150 173 21,900  Descending Atlanta Center
22:03 34.0497 -81.5042 354° North 155 178 22,000  Climbing Atlanta Center
22:04 34.0897 -81.5206 341° North 155 178 22,000  Level Atlanta Center
22:05 34.1339 -81.5317 348° North 160 184 22,000  Level Atlanta Center
22:06 34.1781 -81.5431 348° North 165 190 22,000  Level Atlanta Center
22:07 34.2200 -81.5567 345° North 165 190 22,000  Level Atlanta Center
22:08 34.2642 -81.5681 348° North 165 190 22,000  Level Atlanta Center
22:09 34.3058 -81.5769 350° North 165 190 22,000  Level Atlanta Center
22:10 34.3500 -81.5856 351° North 160 184 22,000  Level Atlanta Center
22:11 34.3897 -81.5947 349° North 160 184 22,000  Level Atlanta Center
22:12 34.4361 -81.6108 344° North 155 178 22,000  Level Atlanta Center
22:13 34.4781 -81.6222 347° North 155 178 22,000  Level Atlanta Center
22:14 34.5200 -81.6311 350° North 155 178 22,000  Level Atlanta Center
22:15 34.5639 -81.6400 351° North 150 173 22,000  Level Atlanta Center
22:16 34.6058 -81.6539 345° North 150 173 22,000  Level Atlanta Center
22:17 34.6500 -81.6678 345° North 155 178 22,000  Level Atlanta Center
22:18 34.6878 -81.6819 343° North 155 178 22,000  Level Atlanta Center
22:19 34.7278 -81.6933 347° North 155 178 22,000  Level Atlanta Center
22:20 34.7717 -81.7047 348° North 149 171 22,000  Level Atlanta Center
22:21 34.8158 -81.7186 346° North 149 171 22,000  Level Atlanta Center
22:22 34.8600 -81.7303 348° North 154 177 22,000  Level Atlanta Center
22:23 34.9039 -81.7367 353° North 154 177 22,000  Level Atlanta Center
22:24 34.9519 -81.7478 349° North 161 185 22,000  Level Atlanta Center
22:25 34.9961 -81.7594 348° North 167 192 22,000  Level Atlanta Center
22:26 35.0422 -81.7708 349° North 162 186 22,000  Level Atlanta Center
22:27 35.0883 -81.7822 349° North 162 186 22,000  Level Atlanta Center
22:28 35.1322 -81.7964 345° North 162 186 22,000  Level Atlanta Center
22:29 35.1764 -81.8103 346° North 162 186 22,000  Level Atlanta Center
22:30 35.2206 -81.8219 348° North 162 186 22,000  Level Atlanta Center
22:31 35.2667 -81.8333 349° North 162 186 22,000  Level Atlanta Center
22:32 35.3064 -81.8425 349° North 162 186 22,000  Level Atlanta Center
22:33 35.3525 -81.8539 349° North 167 192 22,000  Level Atlanta Center
22:34 35.4008 -81.8681 347° North 167 192 22,000  Level Atlanta Center
22:35 35.4511 -81.8819 347° North 173 199 22,000  Level Atlanta Center
22:36 35.4992 -81.8933 349° North 173 199 22,000  Level Atlanta Center
22:37 35.5433 -81.9050 348° North 173 199 22,000  Level Atlanta Center
22:38 35.5936 -81.9189 347° North 167 192 22,000  Level Atlanta Center
22:39 35.6397 -81.9358 343° North 167 192 22,000  Level Atlanta Center
22:40 35.6858 -81.9447 351° North 167 192 22,000  Level Atlanta Center
22:41 35.7339 -81.9589 347° North 167 192 22,000  Level Atlanta Center
22:42 35.7822 -81.9703 349° North 167 192 22,000  Level Atlanta Center
22:43 35.8283 -81.9794 351° North 167 192 22,000  Level Atlanta Center
22:44 35.8744 -81.9936 346° North 167 192 22,000  Level Atlanta Center
22:45 35.9183 -82.0106 343° North 167 192 22,000  Level Atlanta Center
22:46 35.9583 -82.0250 344° North 167 192 22,000  Level Atlanta Center
22:47 36.0025 -82.0522 333° Northwest 167 192 22,000  Level Atlanta Center
22:48 36.0447 -82.0794 332° Northwest 172 198 22,000  Level Atlanta Center
22:49 36.0847 -82.1039 334° Northwest 167 192 22,000  Level Atlanta Center
22:50 36.1247 -82.1236 338° Northwest 162 186 22,000  Level Atlanta Center
22:51 36.1686 -82.1356 348° North 155 178 22,000  Level Atlanta Center
22:52 36.2189 -82.1444 352° North 155 178 22,000  Level Atlanta Center
22:53 36.2567 -82.1567 345° North 156 180 22,000  Level Atlanta Center
22:54 36.3006 -82.1683 348° North 151 174 22,000  Level Atlanta Center
22:55 36.3444 -82.1803 348° North 156 180 22,000  Level Atlanta Center
22:56 36.3844 -82.1922 346° North 156 180 22,000  Level Atlanta Center
22:57 36.4283 -82.2042 348° North 156 180 22,000  Level Atlanta Center
22:58 36.4703 -82.2136 350° North 156 180 22,000  Level Atlanta Center
23:00 36.5328 -82.2297 348° North 153 176 22,000  Level Indianapolis Center
23:01 36.5742 -82.2414 347° North 153 176 22,000  Level Indianapolis Center
23:02 36.6167 -82.2531 348° North 154 177 22,000  Level Indianapolis Center
23:03 36.6656 -82.2656 348° North 154 177 22,000  Level Indianapolis Center
23:04 36.7058 -82.2761 348° North 149 171 22,000  Level Indianapolis Center
23:05 36.7486 -82.2869 349° North 155 178 22,000  Level Indianapolis Center
23:06 36.7919 -82.2983 348° North 159 183 22,000  Level Indianapolis Center
23:07 36.8322 -82.3078 349° North 149 171 22,000  Level Indianapolis Center
23:08 36.8736 -82.3186 348° North 152 175 22,000  Level Indianapolis Center
23:09 36.9164 -82.3297 348° North 156 180 22,000  Level Indianapolis Center
23:10 36.9664 -82.3411 350° North 156 180 22,000  Level Indianapolis Center
23:11 37.0108 -82.3517 349° North 161 185 22,000  Level Indianapolis Center
23:12 37.0542 -82.3617 350° North 158 182 22,000  Level Indianapolis Center
23:13 37.0961 -82.3728 348° North 155 178 22,000 -60 Level Indianapolis Center
23:14 37.1378 -82.3856 346° North 153 176 21,900 -540 Descending Indianapolis Center
23:15 37.1853 -82.3989 347° North 171 197 21,000 -840 Descending Indianapolis Center
23:16 37.2369 -82.4119 349° North 185 213 20,200 -960 Descending Indianapolis Center
23:17 37.2894 -82.4247 349° North 190 219 19,100 -1,080 Descending Indianapolis Center
23:18 37.3519 -82.4436 346° North 196 226 18,000 -1,080 Descending Indianapolis Center
23:19 37.4047 -82.4575 348° North 194 223 17,000 -1,020 Descending Indianapolis Center
23:20 37.4567 -82.4725 347° North 192 221 16,000 -1,020 Descending Indianapolis Center
23:21 37.5089 -82.4858 349° North 190 219 15,000 -900 Descending Indianapolis Center
23:22 37.5594 -82.4964 351° North 185 213 14,200 -780 Descending Indianapolis Center
23:23 37.6092 -82.5094 348° North 182 209 13,500 -840 Descending Indianapolis Center
23:24 37.6600 -82.5214 349° North 184 212 12,600 -780 Descending Indianapolis Center
23:25 37.7114 -82.5381 346° North 187 215 12,000 -660 Descending Indianapolis Center
23:26 37.7669 -82.5553 346° North 179 206 11,300 -600 Descending Indianapolis Center
23:27 37.8164 -82.5672 349° North 180 207 10,800 -480 Descending Indianapolis Center
23:28 37.8658 -82.5794 349° North 180 207 10,400 -480 Descending Indianapolis Center
23:29 37.9144 -82.5922 348° North 179 206 9,900 -540 Descending Indianapolis Center
23:30 37.9631 -82.6050 348° North 178 205 9,400 -600 Descending Indianapolis Center
23:31 38.0117 -82.6192 347° North 178 205 8,800 -540 Descending Indianapolis Center
23:32 38.0608 -82.6311 349° North 180 207 8,400 -420 Descending Indianapolis Center
23:33 38.1089 -82.6428 349° North 177 204 8,000 -480 Descending Indianapolis Center
23:34 38.1653 -82.6586 348° North 177 204 7,500 -540 Descending Indianapolis Center
23:35 38.2131 -82.6717 348° North 177 204 7,000 -480 Descending Indianapolis Center
23:36 38.2617 -82.6867 346° North 179 206 6,600 -540 Descending Indianapolis Center
23:38 38.3083 -82.7003 347° North 175 201 6,000 -660 Descending Indianapolis Center
23:39 38.3581 -82.7142 348° North 181 208 5,300 -720 Descending Indianapolis Center
23:40 38.4056 -82.7247 350° North 175 201 4,600 -720 Descending Indianapolis Center
23:41 38.4539 -82.7369 349° North 176 203 3,900 -660 Descending Indianapolis Center
23:42 38.5014 -82.7511 347° North 175 201 3,300 -420 Descending Indianapolis Center
23:43 38.5539 -82.7644 349° North 167 192 3,100 -120 Descending Indianapolis Center
23:44 38.5919 -82.7744 348° North 156 180 3,100  Level Indianapolis Center